This demonstration page uses our WeatherBlox Daily Observations layout. Learn more.

Left ArrowRight Arrow

41.86663, -103.66717

Hourly Observations for September 10, 2015

Temp ( °F °C ) Dew Point ( °F °C ) Humidity (%) Winds ( mph kmh ) Pressure ( in mb ) Visibility ( mi km ) Precip ( " mm )
12:53 am 00:53 Clear 53 11.7 42 5.6 66 66 NE 13 20 29.95 1014 10 16 N/A
1:53 am 01:53 Clear 53 11.7 42 5.6 66 66 NNE 14 22 29.94 1014 10 16 N/A
2:53 am 02:53 Clear 52 11.1 45 7.2 77 77 NNE 12 19 29.93 1014 10 16 N/A
3:43 am 03:43 Clear 52 11.1 43 6.1 72 72 NNW 8 13 30.00 1016 10 16 N/A
3:53 am 03:53 Clear 51 10.6 43 6.1 74 74 N 9 15 29.93 1014 10 16 N/A
4:53 am 04:53 Clear 49 9.4 42 5.6 77 77 NW 10 17 29.94 1014 10 16 N/A
5:53 am 05:53 Clear 50 10 44 6.7 80 80 ENE 7 11 29.95 1014 10 16 N/A
6:53 am 06:53 Sunny 48 8.9 43 6.1 83 83 VRB 5 7 29.97 1015 10 16 N/A
7:53 am 07:53 Sunny 54 12.2 46 7.8 75 75 VRB 6 9 29.98 1015 10 16 N/A
8:53 am 08:53 Sunny 61 16.1 50 10 67 67 NW 21 33 30.00 1016 10 16 N/A
10:53 am 10:53 Sunny 72 22.2 50 10 46 46 SE 9 15 29.99 1016 10 16 N/A
11:53 am 11:53 Sunny 73 22.8 50 10 44 44 ENE 7 11 30.00 1016 10 16 N/A
12:53 pm 12:53 Sunny 76 24.4 50 10 40 40 VRB 7 11 29.98 1015 10 16 N/A
1:53 pm 13:53 Sunny 77 25 49 9.4 37 37 WNW 23 37 29.98 1015 10 16 N/A
2:36 pm 14:36 Sunny 75 24 43 6 31 31 NNE 15 24 29.85 1011 10 16 N/A
2:53 pm 14:53 Sunny 76 24.4 44 6.7 32 32 NE 21 33 29.99 1016 10 16 N/A
3:53 pm 15:53 Sunny 77 25 43 6.1 30 30 NE 18 30 29.97 1015 10 16 N/A
4:53 pm 16:53 Sunny 77 25 42 5.6 29 29 NE 21 33 29.98 1015 10 16 N/A
5:53 pm 17:53 Sunny 75 23.9 42 5.6 31 31 NE 20 31 30.01 1016 10 16 N/A
6:53 pm 18:53 Sunny 69 20.6 43 6.1 39 39 NE 15 24 30.05 1018 10 16 N/A
7:53 pm 19:53 Clear 60 15.6 45 7.2 58 58 NE 13 20 30.08 1019 10 16 N/A
8:53 pm 20:53 Clear 59 15 45 7.2 60 60 NE 13 20 30.11 1020 10 16 N/A
9:53 pm 21:53 Clear 58 14.4 45 7.2 62 62 NE 9 15 30.13 1020 10 16 N/A
10:53 pm 22:53 Clear 57 13.9 47 8.3 69 69 NE 12 19 30.14 1021 10 16 N/A
11:53 pm 23:53 Clear 55 12.8 47 8.3 74 74 NNE 13 20 30.17 1022 10 16 N/A

Powered by AerisWeather